View from above orbital plane
|
View from above satellite
|
Ground track
|
The orbit data is extracted from the following two-line orbital elements,
1 05917U 72022A 21102.57233202 .00000090 00000-0 45132-4 0 9993
2 05917 81.2251 327.2922 0031188 266.6750 93.0852 14.08725906518118
Epoch (UTC): | 12 April 2021 13:44:09 |
Eccentricity: | 0.0031188 |
inclination: | 81.2251° |
perigee height: | 841 km |
apogee height: | 886 km |
right ascension of ascending node: | 327.2922° |
argument of perigee: | 266.6750° |
revolutions per day: | 14.08725906 |
mean anomaly at epoch: | 93.0852° |
orbit number at epoch: | 51811 |
The dashed part of the orbit path shows where the satellite is in the earth's shadow,
|
|